sat.trackr.live / text

‹ back to catalog

STARLINK-31962

NORAD 59936 · 2024-106Q

PAYLOAD ACTIVE UNKNOWN

§ Identity

Operator
Country
US
Launch date
2024-06-01
Launch site
AFETR
Launch vehicle
Mass (kg)
RCS (m²)

Purposes: comms

External: N2YO · Heavens-Above · Gunter

§ Orbital elements

Epoch: 2026-09-21T10:04:31.577088Z

Period
94.27 min
Inclination
43.0020°
Eccentricity
0.0001225
Mean motion
15.27580922 rev/d
Perigee alt
482.2 km
Apogee alt
483.9 km
Semi-major
6,861.2 km
B*
4.7799e-6
RAAN
307.4462°
Arg perigee
273.2037°
Mean anomaly
86.8674°
Rev number
13,045

§ Raw data

STARLINK-319621 59936U 24106Q   26264.41980992 -.00000131  00000+0  47799-5 0  99932 59936  43.0020 307.4462 0001225 273.2037  86.8674 15.27580922130456

JSON: /api/v1/satellites/59936 · /tle

For live sub-satellite position, see the globe view (requires WebGL).

§ Visibility from observer

Set your observer location to see the next 7 days of passes ≥ 10°. The values pass through the URL so the page stays shareable.

No JS? Fill the form by hand. The geolocation button needs JavaScript.